Terminal Aerodrome Forecast
Issued by NWS Central Illinois

Home | Current Version | Previous Version | Text Only | Print | Product List | Glossary On
Versions: 1 2 3 4 5 6 7 8 9 10 11 12 13 14 15 16 17 18 19 20 21 22 23 24 25 26 27 28 29 30 31 32
000
FTUS43 KILX 291120
TAFPIA
TAF
KPIA 291120Z 2912/3012 06013G17KT 5SM -SHRA BR VCTS BKN015CB
     FM291500 06014G21KT 2SM -SHRA BR VCTS OVC006CB
     FM292000 08011G18KT 2SM TSRA BR BKN004 OVC012CB
     FM300000 04012KT 2SM SHRA OVC008
     FM300600 07010KT 2SM SHRA OVC003
     FM301000 07009KT 2SM SHRA OVC008=

USA.gov is the U.S. government's official web portal to all federal, state and local government web resources and services.